カタログに戻る

OSCAR 23 DEB

運用中PO
NORAD 33395·DEBRIS·🇺🇸 United States

打ち上げ Apr 26, 1988 から Vandenberg Space Force Base

Loading…

次のパス (今後24時間)

TLE

最新Source: Space-Track

元期: Sep 14, 2026, 15:39 UTC

1 33395U 88033K   26257.65234797  .00000113  00000-0  20082-3 0  9990
2 33395  90.3355  25.0459 0186987 105.2946 271.4054 13.29844412867744

AllMySatでOSCAR 23 DEBをリアルタイム追跡

Download on the App Store